{"data":{"norad_id":53904,"intl_designator":"2022-119U","name":"STARLINK-4787","alt_names":[],"object_type":"PAYLOAD","status":"ACTIVE","operator":null,"country":"US","launch_date":"2022-09-24","launch_site_code":"AFETR","launch_vehicle":null,"mission":null,"orbit_class":"UNKNOWN","rcs_meters":null,"size_class":null,"mass_kg":null,"dimensions":null,"purposes":["comms"],"wikipedia_slug":null,"has_3d_model":false,"image_url":null,"decayed_at":null,"tle_current":{"epoch":"2026-05-24T22:54:42.604128Z","epoch_age_seconds":69245,"freshness":"FRESH","line1":"1 53904U 22119U   26144.95465977 -.00000057  00000+0  14518-4 0  9990","line2":"2 53904  53.2153 341.3507 0001590 100.0828 260.0343 15.08836719203202","mean_motion":15.08836719,"eccentricity":0.000159,"inclination_deg":53.2153,"raan_deg":341.3507,"arg_perigee_deg":100.0828,"mean_anomaly_deg":260.0343,"bstar":1.4518e-5,"rev_number":20320,"period_min":95.437762208914,"perigee_km":538.65347311028,"apogee_km":540.8533622631,"semimajor_km":6917.8904176867,"source":"CELESTRAK","updated_at":"2026-05-25T13:38:17.585231Z"}}}